Mammoth, CA

2:57 PM PDT on August 24, 2019 (GMT -0700)
Mammoth Yosemite

Weather History for KMMH - July, 2019

Change the Weather History Date:

Wednesday, July 17, 2019

  Actual Average Record
Temperature  
Mean Temperature 65 °F -  
Max Temperature 83 °F 76 °F 90 °F (2018)
Min Temperature 47 °F 63 °F 33 °F (2011)
Growing Degree Days 15 (Base 50)    
Moisture  
Dew Point 35 °F    
Average Humidity 35    
Maximum Humidity 59    
Minimum Humidity 15    
Precipitation  
Precipitation 0.00 in - - ()
Sea Level Pressure  
Sea Level Pressure 30.20 in    
Wind  
Wind Speed 4 mph (West)    
Max Wind Speed 25 mph    
Max Gust Speed 32 mph    
Visibility 10 miles    
Events      
Averages and records for this station are not official NWS values.
T = Trace of Precipitation, MM = Missing Value Source: NWS Daily Summary

Daily Weather History Graph

Daily Weather History Graph

Search for Another Location

Airport or City:

Astronomy

Jul. 17, 2019 Rise Set
Actual Time 5:47 AM PDT 8:15 PM PDT
Civil Twilight 5:17 AM PDT 8:45 PM PDT
Nautical Twilight 4:39 AM PDT 9:22 PM PDT
Astronomical Twilight 3:58 AM PDT 10:04 PM PDT
Moon 9:07 PM PDT (7/17) 6:24 AM PDT (7/17)
Length of Visible Light 15h 28m
Length of Day
14h 28m
Full, 99% of the Moon is Illuminated
Jul 17
Full
Jul 24
Last Quarter
Jul 31
New
Aug 7
First Quarter
Aug 15
Full

Hourly Weather History & Observations

Time (PDT) Temp. Dew Point Humidity Pressure Visibility Wind Dir Wind Speed Gust Speed Precip Events Conditions
12:15 AM 50.0 °F 34.3 °F 55% 30.18 in 10.0 mi Calm Calm - N/A   Clear
12:35 AM 51.8 °F 34.7 °F 52% 30.17 in 10.0 mi Calm Calm - N/A   Clear
12:55 AM 48.7 °F 34.5 °F 58% 30.17 in 10.0 mi Calm Calm - N/A   Clear
1:15 AM 51.8 °F 33.8 °F 50% 30.17 in 10.0 mi Calm Calm - N/A   Clear
1:35 AM 54.0 °F 33.1 °F 45% 30.17 in 10.0 mi Calm Calm - N/A   Clear
1:55 AM 50.2 °F 32.4 °F 50% 30.17 in 10.0 mi North 4.6 mph - N/A   Clear
2:15 AM 50.7 °F 33.1 °F 51% 30.17 in 10.0 mi Calm Calm - N/A   Clear
2:35 AM 50.2 °F 33.4 °F 53% 30.17 in 10.0 mi Calm Calm - N/A   Clear
2:55 AM 51.3 °F 32.0 °F 48% 30.17 in 10.0 mi Calm Calm - N/A   Clear
3:15 AM 49.1 °F 32.7 °F 53% 30.16 in 10.0 mi Calm Calm - N/A   Clear
3:35 AM 51.4 °F 33.8 °F 51% 30.16 in 10.0 mi West 4.6 mph - N/A   Clear
3:55 AM 49.6 °F 33.8 °F 54% 30.17 in 10.0 mi Calm Calm - N/A   Clear
4:15 AM 49.3 °F 33.6 °F 55% 30.17 in 10.0 mi Calm Calm - N/A   Clear
4:35 AM 47.1 °F 33.6 °F 59% 30.17 in 10.0 mi NE 3.5 mph - N/A   Clear
4:55 AM 48.7 °F 34.9 °F 59% 30.18 in 10.0 mi West 10.4 mph - N/A   Clear
5:15 AM 51.1 °F 35.6 °F 55% 30.18 in 10.0 mi WNW 5.8 mph - N/A   Clear
5:35 AM 51.3 °F 35.6 °F 55% 30.18 in 10.0 mi West 9.2 mph - N/A   Clear
5:55 AM 51.4 °F 35.6 °F 55% 30.18 in 10.0 mi West 8.1 mph - N/A   Clear
6:15 AM 50.4 °F 35.8 °F 57% 30.18 in 10.0 mi Calm Calm - N/A   Clear
6:35 AM 52.0 °F 36.1 °F 55% 30.19 in 10.0 mi West 8.1 mph - N/A   Clear
6:55 AM 55.8 °F 36.3 °F 48% 30.19 in 10.0 mi West 4.6 mph - N/A   Clear
7:15 AM 55.6 °F 37.8 °F 51% 30.20 in 10.0 mi WNW 4.6 mph - N/A   Clear
7:35 AM 57.7 °F 39.9 °F 51% 30.20 in 10.0 mi Calm Calm - N/A   Clear
7:55 AM 59.4 °F 39.7 °F 48% 30.21 in 10.0 mi Calm Calm - N/A   Clear
8:15 AM 62.8 °F 39.2 °F 42% 30.21 in 10.0 mi Calm Calm - N/A   Clear
8:35 AM 65.1 °F 39.2 °F 39% 30.21 in 10.0 mi Calm Calm - N/A   Clear
8:55 AM 66.2 °F 41.2 °F 40% 30.21 in 10.0 mi SE 5.8 mph - N/A   Clear
9:15 AM 67.5 °F 41.0 °F 38% 30.22 in 10.0 mi Calm Calm - N/A   Clear
9:35 AM 70.0 °F 41.2 °F 35% 30.21 in 10.0 mi SE 5.8 mph - N/A   Clear
9:55 AM 72.0 °F 40.1 °F 32% 30.21 in 10.0 mi Calm Calm - N/A   Clear
10:15 AM 73.4 °F 35.8 °F 25% 30.21 in 10.0 mi Calm Calm - N/A   Clear
10:35 AM 73.9 °F 35.4 °F 25% 30.22 in 10.0 mi SE 4.6 mph - N/A   Clear
10:55 AM 75.6 °F 34.3 °F 22% 30.22 in 10.0 mi SE 4.6 mph - N/A   Clear
11:15 AM 76.5 °F 35.4 °F 23% 30.22 in 10.0 mi SE 5.8 mph - N/A   Clear
11:35 AM 77.0 °F 33.8 °F 21% 30.22 in 10.0 mi ESE 8.1 mph - N/A   Clear
11:55 AM 77.4 °F 32.0 °F 19% 30.22 in 10.0 mi East 9.2 mph - N/A   Clear
12:15 PM 78.8 °F 31.1 °F 18% 30.22 in 10.0 mi SE 6.9 mph - N/A   Clear
12:35 PM 79.0 °F 30.7 °F 17% 30.21 in 10.0 mi East 6.9 mph - N/A   Clear
12:55 PM 80.2 °F 30.9 °F 17% 30.21 in 10.0 mi ESE 6.9 mph - N/A   Clear
1:15 PM 80.8 °F 31.3 °F 17% 30.21 in 10.0 mi ESE 8.1 mph - N/A   Clear
1:35 PM 81.1 °F 31.6 °F 17% 30.20 in 10.0 mi East 10.4 mph - N/A   Clear
1:55 PM 81.7 °F 31.5 °F 16% 30.20 in 10.0 mi East 3.5 mph - N/A   Clear
2:15 PM 82.4 °F 31.3 °F 16% 30.20 in 10.0 mi ESE 9.2 mph - N/A   Clear
2:35 PM 82.6 °F 30.9 °F 15% 30.19 in 10.0 mi SW 6.9 mph - N/A   Clear
2:55 PM 82.9 °F 31.5 °F 16% 30.19 in 10.0 mi SE 8.1 mph - N/A   Clear
3:15 PM 83.8 °F 32.5 °F 16% 30.19 in 10.0 mi West 9.2 mph - N/A   Clear
3:35 PM 83.7 °F 33.4 °F 16% 30.18 in 10.0 mi WNW 12.7 mph 24.2 mph N/A   Clear
3:55 PM 82.6 °F 33.3 °F 17% 30.19 in 10.0 mi WNW 17.3 mph 31.1 mph N/A   Clear
4:15 PM 82.6 °F 33.4 °F 17% 30.18 in 10.0 mi WNW 25.3 mph 29.9 mph N/A   Clear
4:35 PM 81.1 °F 34.5 °F 19% 30.19 in 10.0 mi NW 20.7 mph 32.2 mph N/A   Clear
4:55 PM 80.2 °F 34.7 °F 19% 30.19 in 10.0 mi WNW 21.9 mph 28.8 mph N/A   Clear
5:15 PM 79.5 °F 33.6 °F 19% 30.19 in 10.0 mi NW 21.9 mph 28.8 mph N/A   Clear
5:35 PM 78.8 °F 33.6 °F 19% 30.18 in 10.0 mi NW 19.6 mph 26.5 mph N/A   Clear
5:55 PM 79.7 °F 36.0 °F 21% 30.17 in 10.0 mi SW 5.8 mph 23.0 mph N/A   Clear
6:15 PM 79.3 °F 34.3 °F 20% 30.18 in 10.0 mi WNW 15.0 mph - N/A   Clear
6:35 PM 78.1 °F 35.6 °F 22% 30.18 in 10.0 mi WNW 13.8 mph 25.3 mph N/A   Clear
6:55 PM 77.0 °F 34.7 °F 22% 30.18 in 10.0 mi WNW 12.7 mph 18.4 mph N/A   Clear
7:15 PM 74.7 °F 35.1 °F 24% 30.19 in 10.0 mi WNW 4.6 mph - N/A   Clear
7:35 PM 73.2 °F 35.8 °F 26% 30.19 in 10.0 mi NNW 6.9 mph - N/A   Clear
7:55 PM 71.6 °F 34.7 °F 26% 30.20 in 10.0 mi NW 8.1 mph - N/A   Clear
8:15 PM 68.9 °F 34.0 °F 28% 30.20 in 10.0 mi WNW 6.9 mph 10.4 mph N/A   Clear
8:35 PM 67.8 °F 33.3 °F 28% 30.20 in 10.0 mi Calm Calm - N/A   Clear
8:55 PM 66.9 °F 33.1 °F 28% 30.21 in 10.0 mi Calm Calm - N/A   Clear
9:15 PM 65.8 °F 33.4 °F 30% 30.22 in 10.0 mi ESE 3.5 mph - N/A   Clear
9:35 PM 64.8 °F 37.6 °F 37% 30.23 in 10.0 mi ESE 4.6 mph - N/A   Clear
9:55 PM 62.4 °F 37.2 °F 39% 30.24 in 10.0 mi Calm Calm - N/A   Clear
10:15 PM 60.3 °F 35.2 °F 39% 30.24 in 10.0 mi Calm Calm - N/A   Clear
10:35 PM 59.5 °F 34.5 °F 39% 30.24 in 10.0 mi Calm Calm - N/A   Clear
10:55 PM 57.4 °F 34.2 °F 42% 30.24 in 10.0 mi Calm Calm - N/A   Clear
11:15 PM 58.5 °F 34.3 °F 40% 30.24 in 10.0 mi Calm Calm - N/A   Clear
11:35 PM 57.7 °F 34.9 °F 42% 30.24 in 10.0 mi Calm Calm - N/A   Clear
11:55 PM 56.5 °F 34.5 °F 44% 30.24 in 10.0 mi Calm Calm - N/A   Clear